DW7229 Weather Reports


time (UTC)temp
F
wind
direction
speed
knots
gust
knots
rain 1hr
in
rain 24hr
in
rain mn
in
humidity
%
barometer
mb
20200531082521 58 209 1.7 3.5 0.00 0.00 0.00 73 1010.1
20200531082020 58 0.0 0.0 0.00 0.00 0.00 72 1010.0
20200531081519 58 112 0.9 1.7 0.00 0.00 0.00 72 1009.9
20200531081017 59 231 0.9 4.3 0.00 0.00 0.00 72 1009.9
20200531080516 59 203 0.0 1.7 0.00 0.00 0.00 72 1009.7
20200531080027 59 210 1.7 4.3 0.00 0.00 0.00 72 1009.7
20200531075519 59 220 0.9 2.6 0.00 0.00 0.00 71 1009.7
20200531075030 59 269 0.9 3.5 0.00 0.00 0.00 71 1009.7
20200531074523 59 199 0.9 2.6 0.00 0.02 0.00 70 1009.6
20200531074016 60 299 1.7 3.5 0.00 0.04 0.00 70 1009.4
20200531073526 60 251 0.9 2.6 0.00 0.06 0.00 70 1009.4
20200531073019 60 266 0.0 1.7 0.00 0.06 0.00 69 1009.5
20200531072529 60 332 1.7 4.3 0.00 0.06 0.00 68 1009.5
20200531072022 61 294 1.7 4.3 0.00 0.06 0.00 68 1009.3
20200531071515 61 205 2.6 6.1 0.00 0.06 0.00 68 1009.2
20200531071025 61 195 2.6 3.5 0.00 0.06 0.00 68 1009.2
20200531070518 61 242 2.6 4.3 0.00 0.06 0.00 68 1009.0
20200531070029 61 266 2.6 5.2 0.00 0.06 0.00 67 1009.0
20200531065521 62 238 2.6 5.2 0.00 0.06 0.00 67 1009.0
20200531065032 62 163 2.6 6.1 0.00 0.06 0.00 66 1008.9
20200531064525 62 287 1.7 3.5 0.00 0.06 0.00 66 1009.0
20200531064017 62 199 2.6 4.3 0.00 0.06 0.00 66 1009.0
20200531063528 62 228 2.6 5.2 0.00 0.06 0.00 66 1009.0
20200531063021 62 201 1.7 4.3 0.00 0.06 0.00 66 1009.1
20200531062531 62 202 3.5 7.0 0.00 0.06 0.00 66 1009.1
20200531062024 63 278 1.7 3.5 0.00 0.06 0.00 66 1009.1
20200531061516 63 197 1.7 4.3 0.00 0.06 0.00 66 1009.1
20200531061027 63 258 1.7 3.5 0.00 0.06 0.00 65 1009.1
20200531060520 63 250 2.6 6.1 0.00 0.06 0.00 65 1009.0
20200531060031 63 217 1.7 3.5 0.00 0.06 0.00 65 1009.0
20200531055523 63 250 1.7 3.5 0.00 0.06 0.00 65 1009.0
20200531055017 63 200 1.7 3.5 0.00 0.06 0.00 65 1008.9
20200531054526 63 200 3.5 6.1 0.00 0.06 0.00 64 1009.0
20200531054019 63 262 2.6 5.2 0.00 0.06 0.00 64 1009.1
20200531053530 63 268 2.6 4.3 0.00 0.06 0.00 64 1009.1
20200531053023 63 227 2.6 5.2 0.00 0.06 0.00 64 1009.0
20200531052515 63 241 1.7 4.3 0.00 0.06 0.00 63 1009.0
20200531052026 63 121 1.7 3.5 0.00 0.06 0.00 63 1009.0
20200531051519 63 217 1.7 4.3 0.00 0.06 0.00 63 1009.0
20200531051029 63 245 0.9 3.5 0.00 0.06 0.00 62 1009.0
20200531050522 64 180 0.9 3.5 0.00 0.06 0.00 60 1008.6
20200531050027 64 222 0.9 2.6 0.00 0.06 0.00 60 1008.6
20200531045525 64 123 1.7 3.5 0.00 0.06 0.00 58 1008.7
20200531045018 64 319 1.7 3.5 0.00 0.06 0.00 58 1008.7
20200531044522 65 271 0.9 3.5 0.00 0.06 0.00 58 1008.7
20200531044021 65 269 2.6 4.3 0.00 0.06 0.00 58 1008.7
20200531043520 65 332 2.6 4.3 0.00 0.06 0.00 58 1008.7
20200531043019 65 262 1.7 3.5 0.00 0.06 0.00 58 1008.8
20200531042517 65 233 1.7 4.3 0.00 0.06 0.00 58 1008.8
20200531042016 65 257 2.6 3.5 0.00 0.06 0.00 58 1008.8
20200531041515 65 99 2.6 6.1 0.00 0.06 0.00 58 1008.8
20200531041032 65 212 3.5 8.7 0.00 0.06 0.00 59 1008.8
20200531040524 64 303 0.9 3.5 0.00 0.06 0.00 60 1008.8
20200531040017 64 236 1.7 3.5 0.00 0.06 0.00 61 1008.8
20200531035528 64 277 1.7 2.6 0.00 0.06 0.06 61 1008.9
20200531035020 64 335 0.9 2.6 0.00 0.06 0.06 61 1008.9
20200531034531 64 230 0.9 1.7 0.00 0.06 0.06 61 1008.9
20200531034024 64 203 0.9 1.7 0.00 0.06 0.06 61 1008.8
20200531033516 64 276 1.7 3.5 0.00 0.06 0.06 61 1008.8
20200531033027 64 234 2.6 4.3 0.00 0.06 0.06 61 1008.9
20200531032520 64 225 1.7 2.6 0.00 0.06 0.06 61 1008.9
20200531032030 64 344 1.7 3.5 0.00 0.06 0.06 62 1008.9
20200531031523 64 298 1.7 4.3 0.00 0.06 0.06 63 1008.9
20200531031015 63 234 2.6 4.3 0.00 0.06 0.06 64 1008.9
20200531030526 63 236 0.9 3.5 0.00 0.06 0.06 65 1008.8
20200531030019 62 280 1.7 4.3 0.00 0.06 0.06 66 1008.8
20200531025530 61 220 1.7 4.3 0.00 0.06 0.06 73 1008.8
20200531025022 59 175 0.9 2.6 0.00 0.06 0.06 79 1008.7
20200531024515 59 270 0.0 2.6 0.00 0.06 0.06 83 1008.6
20200531024025 59 0.0 0.0 0.00 0.06 0.06 83 1008.5
20200531023518 59 0.0 0.0 0.00 0.06 0.06 83 1008.5
20200531023029 59 0.0 0.0 0.00 0.06 0.06 83 1008.5
20200531022521 59 0.0 0.0 0.00 0.06 0.06 83 1008.5
20200531022032 59 0.0 0.0 0.00 0.06 0.06 83 1008.5
20200531021525 59 0.0 0.0 0.00 0.06 0.06 82 1008.5
20200531021018 60 0.0 0.0 0.00 0.06 0.06 82 1008.5
20200531020528 60 0.0 0.0 0.00 0.06 0.06 82 1008.6
20200531020021 60 0.0 0.0 0.00 0.06 0.06 82 1008.6
20200531015532 60 0.0 0.0 0.00 0.06 0.06 82 1008.7
20200531015024 61 0.0 0.0 0.00 0.06 0.06 80 1008.7
20200531014517 61 0.0 0.0 0.00 0.06 0.06 80 1008.6
20200531014028 61 0.0 0.0 0.00 0.06 0.06 81 1008.5
20200531013520 61 0.0 0.0 0.00 0.06 0.06 81 1008.5
20200531013031 61 0.0 0.0 0.00 0.06 0.06 80 1008.4
20200531012524 62 0.0 0.0 0.00 0.06 0.06 80 1008.4
20200531012017 62 0.0 0.0 0.00 0.06 0.06 80 1008.2
20200531011527 62 0.0 0.0 0.00 0.06 0.06 79 1008.0
20200531011020 63 0.0 0.0 0.00 0.06 0.06 78 1008.0
20200531010524 63 0.0 0.0 0.00 0.06 0.06 77 1008.0
20200531010023 64 0.0 0.0 0.00 0.06 0.06 77 1008.0
20200531005516 64 0.0 0.0 0.00 0.06 0.06 77 1008.0
20200531005020 65 0.0 0.0 0.00 0.06 0.06 76 1008.0
20200531004519 65 0.0 0.0 0.00 0.06 0.06 75 1008.0
20200531004018 65 0.0 0.0 0.00 0.06 0.06 74 1008.0
20200531003516 66 0.0 0.0 0.00 0.06 0.06 73 1008.0
20200531003015 67 0.0 0.0 0.00 0.06 0.06 72 1007.9
20200531002526 67 0.0 0.0 0.00 0.06 0.06 70 1007.9
20200531002019 68 0.0 0.0 0.00 0.06 0.06 68 1007.9
20200531001529 68 0.0 0.0 0.00 0.06 0.06 66 1007.9
20200531001024 69 0.0 0.0 0.00 0.06 0.06 65 1007.9
20200531000515 70 0.0 0.0 0.00 0.06 0.06 64 1007.9
20200531000027 70 0.0 0.0 0.00 0.06 0.06 63 1007.9
20200530235518 71 0.0 0.0 0.00 0.06 0.06 62 1007.8
20200530235029 72 0.0 0.0 0.00 0.06 0.06 60 1007.7
20200530234521 72 0.0 0.0 0.00 0.06 0.06 59 1007.8
20200530234032 73 0.0 0.0 0.00 0.06 0.06 58 1007.8
20200530233525 73 0.0 0.0 0.00 0.06 0.06 56 1007.8
20200530233017 74 0.0 0.0 0.00 0.06 0.06 55 1007.7
20200530232528 75 0.0 0.0 0.00 0.06 0.06 53 1007.7
20200530232021 75 0.0 0.0 0.00 0.06 0.06 51 1007.8
20200530231531 76 0.0 0.0 0.00 0.06 0.06 50 1007.8
20200530231024 76 0.0 0.0 0.00 0.06 0.06 48 1007.8
20200530230517 76 0.0 0.0 0.00 0.06 0.06 48 1007.6
20200530230028 77 0.0 0.0 0.00 0.06 0.06 46 1007.6
20200530225520 77 0.0 0.0 0.00 0.06 0.06 44 1007.6
20200530225031 77 0.0 0.0 0.00 0.06 0.06 42 1007.6
20200530224523 78 245 0.9 2.6 0.00 0.06 0.06 42 1007.5
20200530224016 78 232 0.9 2.6 0.00 0.06 0.06 41 1007.4
20200530223527 78 57 0.9 4.3 0.00 0.06 0.06 41 1007.4
20200530223019 78 204 1.7 4.3 0.00 0.06 0.06 42 1007.4
20200530222530 78 221 2.6 6.1 0.00 0.06 0.06 41 1007.4
20200530222023 79 219 1.7 4.3 0.00 0.06 0.06 41 1007.4
20200530221515 80 227 2.6 4.3 0.00 0.06 0.06 40 1007.4
20200530221026 79 221 1.7 3.5 0.00 0.06 0.06 40 1007.4
20200530220519 80 11 1.7 2.6 0.00 0.06 0.06 40 1007.3
20200530220030 81 220 0.9 2.6 0.00 0.06 0.06 40 1007.3
20200530215522 81 186 0.9 2.6 0.00 0.06 0.06 41 1007.3
20200530215015 80 190 0.9 3.5 0.00 0.06 0.06 40 1007.3
20200530214526 79 231 1.7 3.5 0.00 0.06 0.06 40 1007.3
20200530214018 80 183 1.7 3.5 0.00 0.06 0.06 40 1007.3
20200530213529 79 124 1.7 2.6 0.00 0.06 0.06 41 1007.3
20200530213022 80 241 1.7 6.1 0.00 0.06 0.06 39 1007.3
20200530212526 82 261 1.7 4.3 0.00 0.06 0.06 38 1007.3
20200530212025 82 198 2.6 4.3 0.00 0.06 0.06 38 1007.4
20200530211517 81 256 1.7 3.5 0.00 0.06 0.06 39 1007.4
20200530211022 83 209 2.6 4.3 0.00 0.06 0.06 38 1007.4
20200530210521 82 283 3.5 5.2 0.00 0.06 0.06 39 1007.4
20200530210019 80 269 2.6 4.3 0.00 0.06 0.06 40 1007.4
20200530205518 79 290 2.6 4.3 0.00 0.06 0.06 41 1007.3
20200530205017 81 241 3.5 5.2 0.00 0.06 0.06 39 1007.3
20200530204516 83 206 4.3 7.8 0.00 0.06 0.06 38 1007.3
20200530204020 83 207 1.7 5.2 0.00 0.06 0.06 39 1007.3
20200530203531 82 206 2.6 4.3 0.00 0.06 0.06 39 1007.3
20200530203024 83 233 3.5 5.2 0.00 0.06 0.06 38 1007.1
20200530202517 83 258 2.6 4.3 0.00 0.06 0.06 37 1007.1
20200530202027 82 12 1.7 3.5 0.00 0.06 0.06 38 1007.2
20200530201520 82 268 3.5 5.2 0.00 0.06 0.06 37 1007.3
20200530201030 82 184 2.6 5.2 0.00 0.06 0.06 38 1007.3
20200530200523 82 215 3.5 7.0 0.00 0.06 0.06 37 1007.2
20200530200015 83 173 2.6 5.2 0.00 0.06 0.06 38 1007.2
20200530195526 82 207 3.5 5.2 0.00 0.06 0.06 39 1007.1
20200530195019 81 256 3.5 5.2 0.00 0.06 0.06 38 1007.1
20200530194529 81 238 3.5 4.3 0.00 0.06 0.06 39 1007.1
20200530194022 82 216 3.5 5.2 0.00 0.06 0.06 38 1007.1
20200530193515 82 245 3.5 5.2 0.00 0.06 0.06 38 1007.1
20200530193025 81 243 3.5 5.2 0.00 0.06 0.06 38 1007.2
20200530192518 81 284 4.3 7.0 0.00 0.06 0.06 39 1007.2
20200530192029 81 283 3.5 4.3 0.00 0.06 0.06 39 1007.2
20200530191522 82 211 3.5 4.3 0.00 0.06 0.06 38 1007.1
20200530191032 81 208 3.5 6.1 0.00 0.06 0.06 38 1007.2
20200530190525 82 200 3.5 7.0 0.00 0.06 0.06 38 1007.4
20200530190018 82 223 3.5 6.1 0.00 0.06 0.06 38 1007.4
20200530185529 82 227 3.5 6.1 0.00 0.06 0.06 39 1007.3
20200530185021 81 153 3.5 7.0 0.00 0.06 0.06 39 1007.2
20200530184532 81 196 4.3 7.8 0.00 0.06 0.06 39 1007.3
20200530184025 81 266 3.5 7.8 0.00 0.06 0.06 38 1007.3
20200530183517 81 220 4.3 7.0 0.00 0.06 0.06 38 1007.3
20200530183029 81 223 3.5 7.0 0.00 0.06 0.06 40 1007.3
20200530182521 81 261 3.5 6.1 0.00 0.06 0.06 40 1007.3
20200530182032 81 217 3.5 6.1 0.00 0.06 0.06 39 1007.4
20200530181524 81 240 4.3 7.0 0.00 0.06 0.06 40 1007.4
20200530181017 80 205 4.3 7.0 0.00 0.06 0.06 40 1007.4
20200530180528 81 208 4.3 6.1 0.00 0.06 0.06 40 1007.3
20200530180020 81 166 5.2 8.7 0.00 0.06 0.06 40 1007.3
20200530175531 80 261 4.3 6.1 0.00 0.06 0.06 41 1007.6
20200530175024 80 192 3.5 7.0 0.00 0.06 0.06 42 1007.6
20200530174516 81 213 4.3 6.1 0.00 0.06 0.06 42 1007.6
20200530174027 81 208 2.6 4.3 0.00 0.06 0.06 44 1007.6
20200530173520 80 151 2.6 5.2 0.00 0.06 0.06 42 1007.6
20200530173024 80 148 3.5 6.1 0.00 0.06 0.06 42 1007.6
20200530172523 80 195 3.5 7.0 0.00 0.06 0.06 42 1007.6
20200530172016 80 48 4.3 7.8 0.00 0.06 0.06 42 1007.7
20200530171521 80 165 3.5 7.0 0.00 0.06 0.06 43 1007.7
20200530171019 78 228 4.3 8.7 0.00 0.06 0.06 43 1007.8
20200530170518 78 229 4.3 7.0 0.00 0.06 0.06 44 1008.0
20200530170016 78 217 3.5 6.1 0.00 0.06 0.06 43 1008.0
20200530165515 78 216 4.3 7.0 0.00 0.06 0.06 44 1008.0
20200530165026 78 244 4.3 7.0 0.00 0.06 0.06 45 1008.0
20200530164519 78 237 3.5 6.1 0.00 0.06 0.06 45 1007.9
20200530164029 78 195 3.5 6.1 0.00 0.06 0.06 46 1007.8
20200530163522 78 231 4.3 7.0 0.00 0.06 0.06 46 1007.8
20200530163015 77 206 2.6 4.3 0.00 0.06 0.06 47 1008.3
20200530162525 77 245 2.6 5.2 0.00 0.06 0.06 47 1008.3
20200530162018 77 352 3.5 7.8 0.00 0.06 0.06 47 1008.2
20200530161528 77 235 3.5 5.2 0.00 0.06 0.06 47 1008.1
20200530161021 76 248 4.3 7.8 0.00 0.06 0.06 47 1008.1
20200530160532 77 286 4.3 7.0 0.00 0.06 0.06 48 1008.0
20200530160025 77 220 4.3 7.0 0.00 0.06 0.06 48 1008.0
20200530155518 77 230 2.6 6.1 0.00 0.06 0.06 51 1008.0
20200530155028 76 138 3.5 5.2 0.00 0.06 0.06 51 1008.0
20200530154521 76 236 2.6 5.2 0.00 0.06 0.06 51 1008.0
20200530154031 76 234 1.7 5.2 0.00 0.06 0.06 52 1007.9
20200530153524 76 203 4.3 6.1 0.00 0.06 0.06 50 1007.9
20200530153017 76 234 4.3 7.8 0.00 0.06 0.06 49 1007.9
20200530152528 77 197 5.2 7.8 0.00 0.06 0.06 47 1007.9
20200530152020 77 348 4.3 8.7 0.00 0.06 0.06 49 1007.9
20200530151531 77 195 5.2 7.8 0.00 0.06 0.06 47 1007.9
20200530151024 77 219 5.2 7.0 0.00 0.06 0.06 48 1007.9
20200530150516 77 231 5.2 9.6 0.00 0.06 0.06 49 1007.7
20200530150027 77 250 5.2 7.8 0.00 0.06 0.06 49 1007.7
20200530145520 78 234 5.2 9.6 0.00 0.06 0.06 50 1007.9
20200530145030 78 200 2.6 4.3 0.00 0.06 0.06 51 1007.9
20200530144523 77 279 2.6 6.1 0.00 0.06 0.06 54 1007.8
20200530144016 77 229 3.5 5.2 0.00 0.06 0.06 53 1007.6
20200530143527 76 202 2.6 7.0 0.00 0.06 0.06 55 1007.6
20200530143019 76 290 4.3 7.8 0.00 0.06 0.06 55 1007.5
20200530142530 77 179 3.5 4.3 0.00 0.06 0.06 57 1007.5
20200530142022 76 201 2.6 5.2 0.00 0.06 0.06 58 1007.6
20200530141515 76 232 3.5 7.0 0.00 0.06 0.06 59 1007.7
20200530141026 76 309 2.6 4.3 0.00 0.06 0.06 61 1007.7
20200530140518 75 216 4.3 8.7 0.00 0.06 0.06 61 1007.8
20200530140029 75 249 3.5 7.0 0.00 0.06 0.06 61 1007.8
20200530135522 75 215 2.6 7.0 0.00 0.06 0.06 65 1007.9
20200530135026 74 163 2.6 5.2 0.00 0.06 0.06 64 1007.9
20200530134525 74 242 4.3 8.7 0.00 0.06 0.06 64 1007.9
20200530134017 74 194 4.3 6.1 0.00 0.06 0.06 65 1007.9
20200530133522 73 212 3.5 7.8 0.00 0.06 0.06 67 1007.9
20200530133021 73 195 3.5 6.1 0.00 0.06 0.06 67 1007.8
20200530132519 73 186 2.6 4.3 0.00 0.06 0.06 67 1007.8
20200530132018 72 180 4.3 5.2 0.00 0.06 0.06 68 1007.9
20200530131517 72 200 4.3 7.8 0.00 0.06 0.06 70 1007.9
20200530131015 72 271 2.6 5.2 0.00 0.06 0.06 72 1007.9
20200530130520 72 272 4.3 8.7 0.00 0.06 0.06 74 1007.8
20200530130031 72 285 4.3 7.8 0.00 0.06 0.06 79 1007.8
20200530125524 72 203 3.5 7.0 0.00 0.06 0.06 82 1007.7
20200530125016 71 169 2.6 6.1 0.00 0.06 0.06 84 1007.7
20200530124527 71 252 4.3 7.0 0.00 0.06 0.06 85 1007.6
20200530124020 71 237 2.6 5.2 0.00 0.06 0.06 88 1007.5
20200530123530 71 256 2.6 3.5 0.00 0.06 0.06 91 1007.5
20200530123023 71 185 2.6 3.5 0.00 0.06 0.06 96 1007.5
20200530122515 70 214 2.6 4.3 0.00 0.06 0.06 97 1007.5
20200530122026 70 191 1.7 4.3 0.00 0.06 0.06 97 1007.5
20200530121519 70 256 1.7 3.5 0.00 0.06 0.06 99 1007.4
20200530121030 70 235 1.7 3.5 0.00 0.06 0.06 99 1007.4
20200530120522 70 248 0.9 1.7 0.00 0.06 0.06 99 1007.4
20200530120033 70 153 0.9 2.6 0.00 0.06 0.06 99 1007.4
20200530115526 69 213 1.7 3.5 0.00 0.06 0.06 99 1007.3
20200530115018 69 241 1.7 6.1 0.00 0.06 0.06 99 1007.3
20200530114529 69 166 1.7 5.2 0.00 0.06 0.06 99 1007.3
20200530114021 69 200 1.7 2.6 0.00 0.06 0.06 99 1007.3
20200530113532 69 226 1.7 3.5 0.00 0.06 0.06 99 1007.3
20200530113025 69 214 1.7 3.5 0.00 0.06 0.06 99 1007.1
20200530112517 69 237 2.6 4.3 0.00 0.06 0.06 99 1007.1
20200530112028 69 194 1.7 3.5 0.00 0.06 0.06 99 1007.2
20200530111521 69 184 1.7 2.6 0.00 0.06 0.06 99 1007.2
20200530111032 69 196 0.9 2.6 0.00 0.06 0.06 99 1007.2
20200530110524 69 252 1.7 4.3 0.00 0.06 0.06 99 1007.3
20200530110017 68 211 1.7 3.5 0.00 0.06 0.06 99 1007.3
20200530105528 68 198 1.7 5.2 0.00 0.06 0.06 99 1007.3
20200530105020 68 312 1.7 3.5 0.00 0.06 0.06 99 1007.3
20200530104531 68 302 1.7 4.3 0.00 0.06 0.06 99 1007.3
20200530104024 68 185 0.9 2.6 0.00 0.06 0.06 99 1007.3
20200530103516 68 171 0.9 2.6 0.00 0.06 0.06 99 1007.3
20200530103027 68 137 0.9 1.7 0.00 0.06 0.06 99 1007.2
20200530102519 68 245 0.9 2.6 0.00 0.06 0.06 99 1007.2
20200530102030 68 270 0.0 1.7 0.00 0.06 0.06 99 1007.2
20200530101523 68 150 0.9 2.6 0.00 0.06 0.06 99 1007.1
20200530101016 68 128 0.9 3.5 0.00 0.06 0.06 99 1007.1
20200530100526 68 0.0 0.0 0.00 0.06 0.06 99 1007.2
20200530100019 68 0.0 0.0 0.00 0.06 0.06 99 1007.2
20200530095524 68 227 0.9 3.5 0.00 0.06 0.06 99 1007.3
20200530095023 68 215 0.9 3.5 0.00 0.06 0.06 99 1007.3
20200530094515 68 203 0.0 2.6 0.00 0.06 0.06 99 1007.3
20200530094020 68 0.0 0.0 0.00 0.06 0.06 99 1007.2
20200530093518 68 203 0.9 2.6 0.00 0.06 0.06 99 1007.2
20200530093018 68 196 0.9 3.5 0.00 0.06 0.06 99 1006.9
20200530092516 68 215 0.9 3.5 0.00 0.06 0.06 99 1006.9
20200530092032 68 248 0.0 1.7 0.00 0.06 0.06 99 1006.9
20200530091018 68 0.0 2.6 0.00 0.06 0.06 99 1006.8
20200530090529 68 180 0.0 1.7 0.00 0.06 0.06 99 1006.5
20200530090021 68 135 0.0 1.7 0.00 0.06 0.06 99 1006.5
20200530085532 68 180 0.0 1.7 0.00 0.06 0.06 99 1006.8
20200530085025 68 145 0.9 3.5 0.00 0.06 0.06 98 1006.8
20200530084517 68 188 0.9 2.6 0.02 0.06 0.06 97 1006.8
20200530084028 69 113 0.0 1.7 0.04 0.06 0.06 97 1006.8
20200530083521 69 203 0.0 1.7 0.06 0.06 0.06 96 1006.9
20200530083031 69 0.0 1.7 0.06 0.06 0.06 96 1007.1